Regional Weather Roundup
Issued by NWS Wakefield, VA

Home | Current Version | Previous Version | Graphics & Text | Print | Product List | Glossary On
Versions: 1 2 3 4 5 6 7 8 9 10 11 12 13 14 15 16 17 18 19 20 21 22 23 24 25 26 27 28 29 30 31 32 33 34 35 36 37 38 39 40 41 42 43 44 45 46 47 48 49
000
ASUS41 KAKQ 031314
RWRAKQ

REGIONAL WEATHER ROUNDUP
NATIONAL WEATHER SERVICE WAKEFIELD VA
900 AM EDT FRI JUL 03 2015

Note: "fair" indicates few or no clouds below 12,000 feet with no
significant weather and/or obstructions to visibility. * = Denotes
station may not report precipitation (e.g., rain,snow,etc.),
thunder or fog.

VAZ042-051-052>054-056-031400-
NORTHERN VIRGINIA

CITY           SKY/WX    TMP DP  RH WIND       PRES   REMARKS
WASH NATIONAL  CLOUDY    71  67  87 CALM      29.98R FOG
DULLES         CLOUDY    70  65  84 CALM      29.98S
FORT BELVOIR   CLOUDY    68  66  94 CALM      29.98R
QUANTICO       CLOUDY    69  65  86 NW5       29.99R
FREDERICKSBRG* CLOUDY    69  69 100 CALM      29.99R
STAFFORD*      CLOUDY    65  64  94 CALM      30.03R FOG
WARRENTON      FOG       65  65 100 CALM      29.98S VSB 1/4
CULPEPER*      CLOUDY    64  63  98 CALM      30.00R
MANASSAS*      FOG       64  64 100 CALM      29.99R VSB 1
LEESBURG*      PTSUNNY   70  68  94 NW3       30.00R
WINCHESTER     PTSUNNY   68  64  88 NE3       30.00R
FRONT ROYAL*   CLOUDY    63  63 100 CALM      29.99R
LURAY*         CLOUDY    64  64 100 CALM      30.01R FOG
$$

VAZ048-049-060>072-079>083-031400-
CENTRAL AND SOUTH CENTRAL VIRGINIA

CITY           SKY/WX    TMP DP  RH WIND       PRES   REMARKS
RICHMOND       MOSUNNY   75  66  73 CALM      29.99R
CHESTERFIELD*  NOT AVBL
PETERSBURG*    MOSUNNY   74  72  95 E5        30.00R FOG
HANOVER        MOSUNNY   72  66  81 S3        30.01R HAZE
TAPPAHANNOCK*  FOG       70  67  89 CALM      30.00R VSB 1
QUINTON*       FAIR      72  68  87 E3        30.00R
CHARLOTTSVILLE CLOUDY    67  64  90 CALM      29.99R FOG
GORDONSVILLE*  FAIR      66  64  94 CALM      29.99R FOG
ORANGE*        CLOUDY    68  64  88 CALM      30.01R FOG
LOUISA*        CLOUDY    70  66  88 SE3       29.99R
BUMPASS*       FAIR      69  65  88 CALM      29.99R
FARMVILLE*     CLOUDY    73  71  94 CALM      29.99R
CREWE*         CLOUDY    71  68  90 CALM      30.00R
FORT PICKETT*  CLOUDY    71  68  91 E5        30.00R
CHASE CITY*    PTSUNNY   73  71  92 CALM      30.00R
CLARKSVILLE*   PTSUNNY   72  66  83 E6        29.99R
SOUTH HILL*    PTSUNNY   69  67  95 CALM      30.06R
LAWRENCEVILLE* NOT AVBL
EMPORIA*         N/A     72  68  88 NE3       30.01R
$$

VAZ088>098-031400-
SOUTHEAST VIRGINIA

CITY           SKY/WX    TMP DP  RH WIND       PRES   REMARKS
NORFOLK        MOSUNNY   75  62  64 E8        29.98R
VIRGINIA BEACH NOT AVBL
NORFOLK NAVAL  MOSUNNY   75  64  68 E8        30.00R
WEST POINT*    SUNNY     76  68  75 CALM      30.01R
SALUDA*        FAIR      74  67  79 E3        29.98R
NEWPORT NEWS   PTSUNNY   73  68  84 SE5       30.00R
LANGLEY AFB    SUNNY     76  65  68 E9        29.98R
FORT EUSTIS    MOSUNNY   75  73  94 E3        29.98R
WILLIAMSBURG*  SUNNY     73  72  94 CALM      30.00R
HR EXEC AP*    FAIR      75  66  73 CALM      30.01R
FRANKLIN*      SUNNY     73  69  87 NE5       30.00R
WAKEFIELD      SUNNY     75  68  78 VRB3      30.00R HAZE
$$

VAZ020-022-025-037-045-031400-
WEST CENTRAL AND SOUTHWEST VIRGINIA

CITY           SKY/WX    TMP DP  RH WIND       PRES   REMARKS
STAUNTON*      CLOUDY    67  64  93 CALM      30.03S FOG
WAYNESBORO*    CLOUDY    62  62 100 CALM      30.02R
HOT SPRINGS VA DRZL/FOG  61  61 100 E5        30.07R VSB<1/4
LYNCHBURG      CLOUDY    68  65  90 E3        30.01R
DANVILLE       CLOUDY    71  67  87 SE3       29.99R
SOUTH BOSTON*  CLOUDY    70  68  94 MISG      29.99R
MARTINSVILLE   LGT RAIN  70  70 100 E3        30.02R
ROANOKE        CLOUDY    68  65  90 E6        30.01R
BLACKSBURG     RAIN      65  65 100 SE3       30.06R
DUBLIN*        HVY RAIN  65  65 100 E3        30.03S VSB 3/4
MARION*        CLOUDY    67  65  93 E5        30.03F
HILLSVILLE*    LGT RAIN  65  65  99 SE5       30.02F
RICHLANDS*     CLOUDY    66  66 100 CALM      29.99F
WISE*          CLOUDY    70  70 100 S3        29.98F
ABINGDON*      CLOUDY    71  69  95 CALM      29.97F
$$

MDZ021>025-VAZ099-100-031400-
SOUTHERN MARYLAND AND THE DELMARVA PENINSULA

CITY           SKY/WX    TMP DP  RH WIND       PRES   REMARKS
PATUXENT RIVER PTSUNNY   73  67  81 CALM      29.97R
BAY BRIDGE APT   N/A     72  68  88 CALM      29.98R FOG
LEONARDTOWN    PTSUNNY   70  64  83 CALM      30.00R
DOVER          CLOUDY    72  72 100 NE2       29.96R
GEORGETOWN     PTSUNNY   71  67  87 CALM      29.98R FOG
EASTON         SUNNY     72  72 100 CALM      30.01R FOG
CAMBRIDGE      PTSUNNY   72  68  88 CALM      29.98R
SALISBURY      MOSUNNY   72  67  84 E5        29.97S HAZE
OCEAN CITY     PTSUNNY   73  65  75 E6        29.98R HAZE
WALLOPS ISLAND MOSUNNY   73  69  87 E6        29.99R FOG
ACCOMACK*      SUNNY     72  68  88 E3        29.99R FOG
$$

NCZ012>017-030>032-031400-
NORTH CENTRAL AND EASTERN NORTH CAROLINA

CITY           SKY/WX    TMP DP  RH WIND       PRES   REMARKS
ROANOKE RAPIDS FAIR      72  68  88 NE5       29.99R
RALEIGH        CLOUDY    74  70  87 S6        29.98S FOG
ELIZABETH CITY MOSUNNY   76  69  79 NE6       29.98R
AHOSKIE*       SUNNY     73  67  81 NE6       30.00R
EDENTON*       MOSUNNY   73  70  89 NE5       29.98S FOG
CURRITUCK*     PTSUNNY   76  66  71 NE6       29.99R
KILL DEVIL HLS PTSUNNY   74  72  95 N3        29.96R
MANTEO         CLOUDY    73  72  97 CALM      29.98R FOG
CAPE HATTERAS  PTSUNNY   77  69  76 W10       29.98S
TARBORO*         N/A     74  71  91 CALM      29.99R FOG
GOLDSBORO      CLOUDY    74  70  89 S3        29.97R
WASHINGTON     CLOUDY    73  70  91 SW5       29.99R
GREENVILLE     CLOUDY    73  72  94 SW5       30.00S
NEW BERN       PTSUNNY   76  68  76 VRB6      30.00S
WILMINGTON     LGT RAIN  75  70  84 W9        30.01R
$$

VAZ048-031400-
ELSEWHERE

CITY           SKY/WX    TMP DP  RH WIND       PRES   REMARKS
HARRISBURG PA  PTSUNNY   69  59  70 CALM      29.99R
BALTIMORE      CLOUDY    70  64  81 NE6       29.97R
ANNAPOLIS      CLOUDY    72  65  78 CALM      29.97R HAZE
ANDREWS AFB    CLOUDY    69  69  99 NE2       29.98R
PHILADELPHIA   PTSUNNY   73  58  59 NE10      29.99R
HENDERSON NC   CLOUDY    70  67  91 E3        29.99S FOG
GREENSBORO     CLOUDY    72  68  87 SE7       29.97R
ROCKY MOUNT    CLOUDY    74  70  87 E5        29.98R FOG
$$

VAZ100-031400-
MARINE

STATION/POSITION TIME  TEMP    WIND        PRES    WAVE   SWELL
                       AIR SEA DIR/SP/G            HT/PER HT/PER
                 (UTC) (F)     (DEG/KT/KT) (MB)    (FT/S) (FT/S)
BRANDYWINE LGT   1200   72 74   60/  4/  6 1014.6R
CAPE MAY NJ      1200   71 75   50/  1/  3 1014.1R
LEWES DE         1200   70 71  280/  1/  2 1014.2R
15NM E FENWICK I 1250   72 73              1014.5R   3/ 7
OCEAN-CITY-INLET 1200   69 71   10/  4/  5 1014.3R
WACHAPREAGUE VA  1200   72 77   20/  3/  5 1014.8R
GOOSES REEF MD   1300   74 77  130/  4/  6 1016.1R
COVE POINT MD    1200   71     300/  1/  3 1015.4R
SOLOMONS ISLAND  1200      79                N/A
BISHOPS HEAD MD  1200   72      40/  4/  7 1014.4R
PINEY POINT MD   1200           50/  4/  5   N/A
CAMBRIDGE MD     1200   69 78  180/  1/  2 1014.5R
LEWISETTA VA     1200   72 79   CALM  /  2 1014.4R
RAPPAHANNOCK LGT 1200           60/  8/ 10 1015.0R
STINGRAY PT      1300   75 80  100/  6/  8 1015.5R   1/ 2
YORK RVR RNG VA  1200   74      70/  8/  9 1014.2R
YORKTOWN VA      1200   73 79   30/  5/  6 1014.4R
JAMESTOWN VA     1300   74 82   90/  4/  6   N/A
DOMINION TERM VA 1200   74      70/  7/ 11 1014.5R
KIPTOPEKE VA     1200      82   70/  3/  7   N/A
CHES BAY BRIDGE  1200   72 76   50/  8/  9 1014.5R
CAPE HENRY VA    1200   72      50/  7/  8 1013.4R
CHESAPEAKE LGHT  1200   73      50/ 10/ 11 1015.4R
WILLOUBY STN VA  1200   74      70/ 10/ 11 1015.6R
CAPE HENRY BUOY  1228      77                N/A     3/ 7
1ST LANDING BUOY 1300      76              1015.1R   2/ 4
CAPE CHARLES BUO 1226      77                N/A     3/ 8   2/ 8
OFFSHORE WE BUOY 1211      78                N/A     4/ 7   3/ 7
64NM E OF VA BCH 1250   74 77   40/ 10/ 12 1014.3R   5/ 7   5/ 7
DUCK PIER NC     1200   73 70   20/  7/  7 1013.7R
44100 DUCK FRF   1224      77                N/A     3/ 8
44056 DUCK FRF   1211      71                N/A     2/ 8
OREGON INLET NC  1200   75 81  270/  8/ 10 1014.6R
HATTERAS NC      1200   76 78  230/ 10/ 14 1014.7R
DIAMOND SHLS NC  1250   77 83  270/ 14/ 17 1014.9R   6/ 7   3/ 7
CAPE LOOKOUT NC  1300   78     270/ 16/ 19 1015.3R
$$



USA.gov is the U.S. government's official web portal to all federal, state and local government web resources and services.